Weather observations for the past three days for
Fort Yukon, Fort Yukon Airport
Metric (Imperial)
Date Time (akdt) Wind (kph) Vis. (km) Weather Sky Cond. Temperature (ºC) Relative Humidity Wind Chill (°C) Heat Index (°C) Pressure Precipitation (cm)
Air Dwpt 6 hour altimeter (cm) sea level (mb) 1 hr 3 hr 6 hr
Max. Min.
21 07:56 NE 17 G 26 16.09 Fair CLR 13.9 1.1 42% 76.1 1015.4
21 06:56 NE 11 G 30 16.09 Fair CLR 12.2 0.6 45% 76.12 1015.5
21 05:56 NE 15 16.09 A Few Clouds FEW060 11.1 1.1 50% 76.12 1015.5
21 04:56 NE 17 16.09 Partly Cloudy SCT060 11.7 1.7 51% 76.12 1015.5
21 03:56 NE 17 16.09 Fair CLR 11.7 1.1 18.3 11.7 48% 76.1 1015.2
21 02:56 NE 9 16.09 Fair CLR 12.2 3.3 55% 76.1 1015.1
21 01:56 NE 11 16.09 Fair CLR 13.3 3.3 51% 76.05 1014.7
21 00:56 Vrbl 7 16.09 Fair CLR 14.4 5.6 56% 76.02 1014.4
20 23:56 NE 7 16.09 Fair CLR 16.1 7.8 58% 76.02 1014.1
20 22:56 NE 7 16.09 Fair CLR 16.7 7.8 56% 76 1014.1
20 21:56 Vrbl 6 16.09 Fair CLR 18.3 7.2 23.9 18.3 49% 76 1013.8
20 20:56 NE 13 16.09 Fair CLR 20.6 6.7 41% 75.97 1013.7
20 19:56 Vrbl 11 16.09 Fair CLR 21.7 6.1 36% 75.97 1013.6
20 18:56 Vrbl 9 16.09 A Few Clouds FEW060 22.2 7.2 38% 75.97 1013.4
20 17:56 NE 15 16.09 A Few Clouds FEW060 23.3 8.3 38% 75.97 1013.5
20 16:56 NE 13 16.09 Partly Cloudy SCT060 23.3 8.3 38% 75.97 1013.7
20 15:56 Vrbl 11 16.09 Fair CLR 22.8 8.3 23.3 16.7 40% 76 1014.0
20 14:56 Vrbl 9 16.09 Fair CLR 22.8 9.4 43% 76.05 1014.5
20 13:56 N 11 16.09 Fair CLR 21.7 9.4 46% 76.07 1014.8
20 12:56 NE 13 16.09 Fair CLR 20.6 9.4 49% 76.1 1015.2
20 11:56 Vrbl 11 16.09 Fair CLR 19.4 9.4 53% 76.12 1015.5
20 10:56 Vrbl 9 16.09 Fair CLR 17.8 8.9 56% 76.15 1015.8
20 09:56 Vrbl 7 16.09 Fair CLR 16.7 8.3 16.7 11.7 58% 76.15 1016.0
20 08:56 NE 13 16.09 Fair CLR 15 7.8 62% 76.15 1016.1
20 07:56 N 11 16.09 Fair CLR 14.4 7.8 65% 76.17 1016.3
20 06:56 Vrbl 6 16.09 Fair CLR 13.9 8.9 72% 76.12 1015.7
20 05:56 N 7 16.09 Partly Cloudy SCT095 13.3 10.6 84% 76.1 1015.1
20 04:56 Calm 16.09 Partly Cloudy SCT090 11.7 10.6 93% 76.07 1014.8
20 03:56 Calm 16.09 Fair CLR 11.7 10 20 11.7 89% 76.05 1014.6
20 02:56 NE 6 16.09 Fair CLR 13.3 11.7 90% 76.02 1014.0
20 01:56 NE 6 16.09 Fair CLR 13.9 11.7 87% 76 1013.7
20 00:56 NE 6 16.09 Fair CLR 15.6 11.7 78% 75.97 1013.4
19 23:56 N 7 16.09 Fair CLR 17.2 13.3 78% 75.92 1012.9
19 22:56 Calm 16.09 Fair CLR 19.4 11.1 59% 75.9 1012.5
19 21:56 Calm 16.09 Fair CLR 20 10.6 25.6 19.4 55% 75.9 1012.4
19 20:56 Vrbl 6 16.09 Fair CLR 21.7 10 47% 75.87 1012.2
19 19:56 Calm 16.09 Partly Cloudy SCT120 21.7 10 47% 75.87 1012.3
19 18:56 NW 11 16.09 Partly Cloudy SCT080 SCT100 21.7 8.9 44% 75.9 1012.4
19 17:56 Vrbl 9 16.09 Fair CLR 23.9 7.8 36% 25 75.84 1011.9
19 16:56 W 11 16.09 Fair CLR 25.6 6.1 29% 26 75.87 1012.0
19 15:56 W 9 16.09 Partly Cloudy SCT100 25 5 25 20 28% 25 75.9 1012.4
19 14:56 W 13 16.09 Fair CLR 24.4 6.7 32% 25 75.87 1012.3
19 13:56 W 11 16.09 Fair CLR 23.9 7.2 34% 25 75.87 1012.3
19 12:56 W 15 16.09 Fair CLR 23.3 7.8 37% 75.92 1012.8
19 11:56 Vrbl 7 16.09 Fair CLR 22.8 9.4 43% 75.95 1013.2
19 10:56 NW 7 14.48 Fair CLR 21.1 10 49% 75.97 1013.4
19 09:56 W 9 16.09 Fair CLR 20 10 20 11.7 53% 75.95 1013.3
19 08:56 SW 6 16.09 Fair CLR 18.3 11.1 63% 75.95 1013.2
19 07:56 W 7 16.09 Fair CLR 16.7 11.1 70% 75.95 1013.1
19 06:56 Calm 16.09 Fair CLR 15.6 11.7 78% 75.92 1013.0
19 05:56 Vrbl 6 16.09 Fair CLR 14.4 11.1 81% 75.92 1012.8
19 04:56 Calm 16.09 Fair CLR 13.3 10.6 84% 75.9 1012.6
19 03:56 Calm 16.09 Fair CLR 11.7 10 17.8 11.1 89% 75.87 1012.3
19 02:56 S 6 16.09 Fair CLR 12.2 10.6 90% 75.84 1012.1
19 01:56 Calm 16.09 Fair CLR 12.2 10.6 90% 75.84 1011.9
19 00:56 Calm 16.09 Fair CLR 13.9 11.1 83% 75.82 1011.6
18 23:56 Calm 16.09 Fair CLR 16.1 10.6 70% 75.79 1011.1
18 22:56 Calm 16.09 Fair CLR 15.6 10.6 72% 75.77 1010.8
18 21:56 SW 6 16.09 Fair CLR 17.8 10 23.9 17.8 60% 75.74 1010.8
18 20:56 Vrbl 7 16.09 Fair CLR 20.6 8.9 47% 75.74 1010.5
18 19:56 Vrbl 11 16.09 Light Rain BKN075 OVC095 18.3 7.8 51% 75.77 1010.8
18 18:56 Vrbl 11 16.09 Mostly Cloudy BKN060 20.6 11.7 57% 75.77 1010.8
18 17:56 SW 6 16.09 A Few Clouds FEW070 22.8 10.6 46% 75.72 1010.2
18 16:56 Calm 16.09 Partly Cloudy SCT090 22.2 10 46% 75.74 1010.5
18 14:56 NW 9 16.09 Fair CLR 21.1 10.6 51% 75.77 1010.9
18 13:56 W 11 16.09 A Few Clouds FEW090 21.1 11.1 53% 75.79 1011.2
18 12:56 W 11 16.09 A Few Clouds FEW090 20.6 11.1 55% 75.82 1011.6
18 11:56 W 9 16.09 Mostly Cloudy BKN120 20.6 11.1 55% 75.82 1011.5
18 10:56 Calm 16.09 A Few Clouds FEW100 18.9 12.2 65% 75.84 1011.7
18 09:56 Calm 16.09 Partly Cloudy SCT080 15.6 12.2 15.6 12.8 80% 75.84 1011.7
18 08:56 Calm 16.09 Light Rain BKN080 OVC100 13.9 12.2 90% 75.82 1011.4
Date Time (akdt) Wind (kph) Vis. (km) Weather Sky Cond. Air Dwpt Max. Min. Relative Humidity Wind Chill (°C) Heat Index (°C) altimeter (cm) sea level (mb) 1 hr 3 hr 6 hr
6 hour
Temperature (ºC) Pressure Precipitation (cm)